{"data":{"norad_id":57047,"intl_designator":"2023-087A","name":"SHIYAN-25 (SY-25)","alt_names":[],"object_type":"PAYLOAD","status":"ACTIVE","operator":null,"country":"PRC","launch_date":"2023-06-20","launch_site_code":"TAISC","launch_vehicle":null,"mission":null,"orbit_class":"UNKNOWN","rcs_meters":null,"size_class":null,"mass_kg":null,"dimensions":null,"purposes":[],"wikipedia_slug":null,"has_3d_model":false,"image_url":null,"decayed_at":null,"tle_current":{"epoch":"2026-05-25T03:52:28.752096Z","epoch_age_seconds":55062,"freshness":"FRESH","line1":"1 57047U 23087A   26145.16144389  .00076039  43302-5  14215-3 0  9995","line2":"2 57047  96.7934 207.1516 0008341 192.8411 167.2658 16.01019629171118","mean_motion":16.01019629,"eccentricity":0.0008341,"inclination_deg":96.7934,"raan_deg":207.1516,"arg_perigee_deg":192.8411,"mean_anomaly_deg":167.2658,"bstar":0.00014215,"rev_number":17111,"period_min":89.942682395432,"perigee_km":266.04735307052,"apogee_km":277.14043414723,"semimajor_km":6649.7308936089,"source":"CELESTRAK","updated_at":"2026-05-25T13:37:59.821989Z"}}}